BER8SH LOWI-EDDB

Flight info

Callsign BER8SH
Flight time 1h 0m
Altitude 29000
Route KOGOL M726 MAH L132 RUDNO T203 TIVDA DCT ETVIS DCT NAVEK DCT GAVLI T203 ATGUP ATGUP1R
Aircraft A320/M-SDE3FGHIRWY/LB1

Departure

Time 2026-05-06 06:31
Airport Innsbruck Airport (LOWI)

Arrival

Time 2026-05-06 07:31
Airport Berlin Brandenburg Airport (EDDB)
Time Latitude Longitude Altitude Speed Heading
2026-05-06 06:11 47.25823 11.35052 1899 ft 0 kts 170°
2026-05-06 06:22 47.25845 11.35045 1886 ft 4 kts 158°
2026-05-06 06:22 47.25867 11.35026 1896 ft 4 kts 119°
2026-05-06 06:23 47.25872 11.35004 1886 ft 0 kts 81°
2026-05-06 06:26 47.25872 11.35005 1886 ft 1 kts 81°
2026-05-06 06:26 47.25877 11.35047 1886 ft 7 kts 81°
2026-05-06 06:26 47.25886 11.35130 1896 ft 7 kts 81°
2026-05-06 06:27 47.25893 11.35192 1894 ft 6 kts 81°
2026-05-06 06:27 47.25899 11.35242 1896 ft 4 kts 81°
2026-05-06 06:27 47.25907 11.35276 1899 ft 3 kts 53°
2026-05-06 06:27 47.25941 11.35285 1896 ft 7 kts 355°
2026-05-06 06:28 47.26007 11.35272 1899 ft 12 kts 350°
2026-05-06 06:28 47.26073 11.35255 1896 ft 6 kts 350°
2026-05-06 06:28 47.26106 11.35260 1903 ft 4 kts 27°
2026-05-06 06:28 47.26120 11.35301 1903 ft 8 kts 78°
2026-05-06 06:29 47.26133 11.35434 1898 ft 18 kts 83°
2026-05-06 06:29 47.26135 11.35594 1896 ft 14 kts 118°
2026-05-06 06:29 47.26135 11.35687 1893 ft 7 kts 20°
2026-05-06 06:29 47.26154 11.35646 1901 ft 4 kts 275°
2026-05-06 06:30 47.26153 11.35634 1900 ft 0 kts 263°
2026-05-06 06:30 47.26144 11.35539 1902 ft 44 kts 261°
2026-05-06 06:31 47.26045 11.34633 1902 ft 132 kts 261°
2026-05-06 06:31 47.25862 11.33048 2274 ft 168 kts 260°
2026-05-06 06:31 47.25688 11.31300 3218 ft 173 kts 262°
2026-05-06 06:31 47.25539 11.29509 4082 ft 184 kts 262°
2026-05-06 06:32 47.25432 11.27531 4383 ft 206 kts 273°
2026-05-06 06:32 47.25701 11.25410 4798 ft 216 kts 283°
2026-05-06 06:32 47.26074 11.23243 5379 ft 221 kts 284°
2026-05-06 06:32 47.26595 11.21087 6042 ft 227 kts 303°
2026-05-06 06:33 47.27614 11.19278 6714 ft 233 kts 313°
2026-05-06 06:33 47.28763 11.17569 7335 ft 237 kts 314°
2026-05-06 06:33 47.30093 11.16134 7959 ft 246 kts 336°
2026-05-06 06:33 47.31787 11.15707 8568 ft 255 kts
2026-05-06 06:34 47.33523 11.16571 8973 ft 277 kts 30°
2026-05-06 06:34 47.35270 11.18003 9501 ft 295 kts 30°
2026-05-06 06:34 47.37089 11.19504 10194 ft 306 kts 30°
2026-05-06 06:34 47.39023 11.21096 10535 ft 330 kts 29°
2026-05-06 06:35 47.41101 11.22793 10896 ft 351 kts 29°
2026-05-06 06:35 47.43268 11.24554 11543 ft 359 kts 29°
2026-05-06 06:35 47.45482 11.26348 12297 ft 365 kts 28°
2026-05-06 06:35 47.47724 11.28162 13063 ft 370 kts 28°
2026-05-06 06:36 47.50002 11.30008 13805 ft 375 kts 28°
2026-05-06 06:36 47.52302 11.31877 14470 ft 380 kts 28°
2026-05-06 06:36 47.54633 11.33774 15131 ft 385 kts 28°
2026-05-06 06:36 47.56993 11.35698 15778 ft 390 kts 28°
2026-05-06 06:37 47.59406 11.37575 16405 ft 394 kts 22°
2026-05-06 06:37 47.62016 11.38884 17042 ft 397 kts 11°
2026-05-06 06:37 47.64721 11.39453 17679 ft 399 kts 359°
2026-05-06 06:37 47.67497 11.39289 18306 ft 401 kts 351°
2026-05-06 06:38 47.70286 11.38885 18867 ft 405 kts 351°
2026-05-06 06:38 47.73110 11.38489 19426 ft 409 kts 351°
2026-05-06 06:38 47.75961 11.38100 19996 ft 414 kts 351°
2026-05-06 06:38 47.78845 11.37709 20548 ft 418 kts 351°
2026-05-06 06:39 47.81761 11.37313 21119 ft 423 kts 351°
2026-05-06 06:39 47.84703 11.36910 21685 ft 427 kts 351°
2026-05-06 06:39 47.87683 11.36532 22236 ft 432 kts 352°
2026-05-06 06:39 47.90698 11.36235 22780 ft 436 kts 353°
2026-05-06 06:40 47.93744 11.35996 23309 ft 440 kts 353°
2026-05-06 06:40 47.96814 11.35785 23762 ft 443 kts 353°
2026-05-06 06:40 47.99907 11.35571 24208 ft 446 kts 353°
2026-05-06 06:40 48.02977 11.35342 24639 ft 448 kts 352°
2026-05-06 06:41 48.06101 11.35089 25065 ft 451 kts 352°
2026-05-06 06:41 48.09231 11.34726 25475 ft 452 kts 349°
2026-05-06 06:41 48.12354 11.34186 25871 ft 453 kts 347°
2026-05-06 06:41 48.15484 11.33532 26275 ft 455 kts 346°
2026-05-06 06:42 48.18627 11.32880 26662 ft 460 kts 350°
2026-05-06 06:42 48.21860 11.32858 27043 ft 469 kts
2026-05-06 06:42 48.24945 11.33703 27394 ft 478 kts 13°
2026-05-06 06:42 48.28074 11.35514 27757 ft 486 kts 24°
2026-05-06 06:43 48.30963 11.38185 28106 ft 491 kts 36°
2026-05-06 06:43 48.33535 11.41593 28447 ft 495 kts 44°
2026-05-06 06:43 48.36014 11.45205 28759 ft 498 kts 43°
2026-05-06 06:44 48.40940 11.52356 28842 ft 485 kts 43°
2026-05-06 06:44 48.45774 11.59372 28837 ft 481 kts 43°
2026-05-06 06:45 48.50575 11.66380 28840 ft 480 kts 43°
2026-05-06 06:45 48.55327 11.73353 28844 ft 479 kts 43°
2026-05-06 06:46 48.60120 11.80359 28841 ft 479 kts 43°
2026-05-06 06:46 48.64918 11.87344 28847 ft 479 kts 43°
2026-05-06 06:47 48.69704 11.94342 28851 ft 478 kts 43°
2026-05-06 06:47 48.74473 12.01359 28855 ft 477 kts 43°
2026-05-06 06:48 48.79135 12.08235 28856 ft 476 kts 43°
2026-05-06 06:48 48.83951 12.15352 28852 ft 476 kts 43°
2026-05-06 06:49 48.88917 12.21961 28849 ft 473 kts 32°
2026-05-06 06:49 48.94691 12.26515 28846 ft 468 kts 21°
2026-05-06 06:50 49.00613 12.30656 28844 ft 468 kts 22°
2026-05-06 06:50 49.06540 12.34860 28848 ft 468 kts 22°
2026-05-06 06:51 49.12427 12.39049 28850 ft 468 kts 22°
2026-05-06 06:51 49.18313 12.43234 28841 ft 467 kts 22°
2026-05-06 06:52 49.24192 12.47419 28846 ft 467 kts 22°
2026-05-06 06:52 49.29109 12.50916 28843 ft 467 kts 22°
2026-05-06 06:53 49.34841 12.55577 28837 ft 470 kts 34°
2026-05-06 06:53 49.40091 12.61634 28833 ft 470 kts 36°
2026-05-06 06:54 49.45524 12.67084 28829 ft 467 kts 23°
2026-05-06 06:54 49.51406 12.71364 28827 ft 467 kts 23°
2026-05-06 06:55 49.57224 12.75668 28825 ft 467 kts 23°
2026-05-06 06:55 49.63086 12.79995 28819 ft 466 kts 21°
2026-05-06 06:56 49.69267 12.82658 28820 ft 459 kts
2026-05-06 06:56 49.75590 12.84092 28818 ft 459 kts
2026-05-06 06:57 49.81910 12.85541 28813 ft 459 kts
2026-05-06 06:57 49.88232 12.87007 28804 ft 460 kts
2026-05-06 06:58 49.94560 12.88474 28800 ft 460 kts
2026-05-06 06:58 50.00890 12.89934 28796 ft 460 kts
2026-05-06 06:59 50.07223 12.91405 28805 ft 460 kts
2026-05-06 06:59 50.13505 12.92872 28801 ft 460 kts
2026-05-06 07:00 50.19837 12.94356 28802 ft 460 kts
2026-05-06 07:00 50.26161 12.95876 28802 ft 461 kts
2026-05-06 07:01 50.32237 12.99217 28796 ft 468 kts 25°
2026-05-06 07:01 50.38038 13.03841 28795 ft 468 kts 24°
2026-05-06 07:02 50.43850 13.08441 28791 ft 468 kts 24°
2026-05-06 07:02 50.49654 13.13055 28782 ft 468 kts 24°
2026-05-06 07:03 50.55423 13.17662 28776 ft 468 kts 24°
2026-05-06 07:03 50.61224 13.22322 28776 ft 468 kts 24°
2026-05-06 07:04 50.67026 13.26992 28785 ft 468 kts 24°
2026-05-06 07:04 50.72816 13.31672 28794 ft 467 kts 24°
2026-05-06 07:05 50.78599 13.36370 28794 ft 466 kts 25°
2026-05-06 07:05 50.84368 13.41064 28792 ft 465 kts 24°
2026-05-06 07:06 50.90095 13.45732 28790 ft 464 kts 25°
2026-05-06 07:06 50.96085 13.49200 28785 ft 456 kts
2026-05-06 07:07 51.02327 13.50885 28776 ft 455 kts
2026-05-06 07:07 51.08665 13.52573 28760 ft 466 kts
2026-05-06 07:08 51.15046 13.54305 28756 ft 466 kts
2026-05-06 07:08 51.21412 13.56040 28756 ft 464 kts
2026-05-06 07:09 51.27783 13.57777 28755 ft 463 kts
2026-05-06 07:09 51.34109 13.59498 28754 ft 462 kts
2026-05-06 07:10 51.40440 13.61224 28756 ft 461 kts
2026-05-06 07:10 51.46743 13.62938 28089 ft 458 kts
2026-05-06 07:10 51.49884 13.63796 27270 ft 456 kts
2026-05-06 07:11 51.53000 13.64655 26546 ft 452 kts
2026-05-06 07:11 51.56087 13.65511 25873 ft 449 kts
2026-05-06 07:11 51.59146 13.66436 25213 ft 445 kts
2026-05-06 07:11 51.62159 13.67485 24555 ft 442 kts 11°
2026-05-06 07:12 51.65141 13.68614 23976 ft 439 kts 12°
2026-05-06 07:12 51.68101 13.69769 23366 ft 436 kts 12°
2026-05-06 07:12 51.71041 13.70916 22679 ft 433 kts 12°
2026-05-06 07:12 51.73959 13.72036 22021 ft 430 kts 11°
2026-05-06 07:13 51.76857 13.73125 21418 ft 426 kts 11°
2026-05-06 07:13 51.79738 13.74189 20841 ft 423 kts 11°
2026-05-06 07:13 51.82598 13.75236 20262 ft 420 kts 11°
2026-05-06 07:13 51.85442 13.76271 19720 ft 418 kts 10°
2026-05-06 07:14 51.88269 13.77304 19193 ft 415 kts 11°
2026-05-06 07:14 51.91101 13.77995 18688 ft 409 kts 358°
2026-05-06 07:14 51.93891 13.77540 18182 ft 400 kts 342°
2026-05-06 07:14 51.96482 13.76041 17618 ft 393 kts 333°
2026-05-06 07:15 51.98992 13.74323 17053 ft 391 kts 333°
2026-05-06 07:15 52.01487 13.72622 16528 ft 388 kts 333°
2026-05-06 07:15 52.03947 13.70856 16000 ft 382 kts 327°
2026-05-06 07:15 52.06047 13.68479 15820 ft 364 kts 315°
2026-05-06 07:16 52.07883 13.65779 15686 ft 349 kts 309°
2026-05-06 07:16 52.09284 13.62695 15566 ft 330 kts 294°
2026-05-06 07:16 52.10077 13.59319 15441 ft 313 kts 279°
2026-05-06 07:16 52.10388 13.55880 15189 ft 304 kts 274°
2026-05-06 07:17 52.10640 13.52473 14851 ft 302 kts 274°
2026-05-06 07:17 52.10891 13.49104 14500 ft 299 kts 274°
2026-05-06 07:17 52.11140 13.45753 14152 ft 298 kts 274°
2026-05-06 07:17 52.11390 13.42427 13881 ft 293 kts 274°
2026-05-06 07:18 52.11633 13.39245 13759 ft 274 kts 274°
2026-05-06 07:18 52.11915 13.36256 13594 ft 264 kts 282°
2026-05-06 07:18 52.12602 13.33504 13374 ft 264 kts 297°
2026-05-06 07:18 52.13664 13.31083 12906 ft 262 kts 303°
2026-05-06 07:19 52.14763 13.28718 12349 ft 261 kts 303°
2026-05-06 07:19 52.15855 13.26365 11800 ft 260 kts 304°
2026-05-06 07:19 52.16944 13.24018 11254 ft 259 kts 304°
2026-05-06 07:19 52.17975 13.21672 10696 ft 256 kts 295°
2026-05-06 07:20 52.18479 13.18938 10174 ft 253 kts 271°
2026-05-06 07:20 52.18248 13.16135 9829 ft 250 kts 249°
2026-05-06 07:20 52.17614 13.13487 9436 ft 251 kts 248°
2026-05-06 07:20 52.16972 13.10850 9057 ft 250 kts 248°
2026-05-06 07:21 52.16334 13.08226 8692 ft 249 kts 248°
2026-05-06 07:21 52.15700 13.05619 8355 ft 247 kts 248°
2026-05-06 07:21 52.15068 13.03023 8038 ft 246 kts 249°
2026-05-06 07:21 52.14438 13.00434 7708 ft 245 kts 249°
2026-05-06 07:22 52.13875 12.97812 7338 ft 247 kts 261°
2026-05-06 07:22 52.13941 12.95100 7110 ft 234 kts 287°
2026-05-06 07:22 52.14658 12.92828 7007 ft 222 kts 310°
2026-05-06 07:22 52.15854 12.91288 6834 ft 219 kts 334°
2026-05-06 07:23 52.17313 12.90691 6635 ft 217 kts 358°
2026-05-06 07:23 52.18787 12.91096 6424 ft 215 kts 22°
2026-05-06 07:23 52.20036 12.92417 6216 ft 218 kts 45°
2026-05-06 07:23 52.20895 12.94432 5986 ft 218 kts 59°
2026-05-06 07:24 52.21625 12.96555 5764 ft 212 kts 59°
2026-05-06 07:24 52.22342 12.98622 5556 ft 206 kts 59°
2026-05-06 07:24 52.23042 13.00636 5349 ft 202 kts 59°
2026-05-06 07:24 52.23750 13.02665 5147 ft 211 kts 59°
2026-05-06 07:25 52.24441 13.04770 4936 ft 215 kts 65°
2026-05-06 07:25 52.25005 13.07060 4552 ft 219 kts 68°
2026-05-06 07:25 52.25545 13.09347 4465 ft 214 kts 68°
2026-05-06 07:25 52.26083 13.11611 4418 ft 214 kts 68°
2026-05-06 07:26 52.26626 13.13862 4351 ft 213 kts 68°
2026-05-06 07:26 52.27171 13.16117 4147 ft 213 kts 68°
2026-05-06 07:26 52.27711 13.18354 3884 ft 211 kts 68°
2026-05-06 07:26 52.28247 13.20575 3602 ft 209 kts 69°
2026-05-06 07:27 52.28770 13.22746 3322 ft 201 kts 69°
2026-05-06 07:27 52.29269 13.24819 3063 ft 191 kts 70°
2026-05-06 07:27 52.29747 13.26807 2828 ft 183 kts 69°
2026-05-06 07:27 52.30192 13.28658 2578 ft 165 kts 69°
2026-05-06 07:28 52.30591 13.30318 2367 ft 149 kts 69°
2026-05-06 07:28 52.30947 13.31803 2175 ft 134 kts 67°
2026-05-06 07:28 52.31612 13.34577 1805 ft 135 kts 69°
2026-05-06 07:29 52.31954 13.36007 1627 ft 134 kts 66°
2026-05-06 07:29 52.32290 13.37410 1449 ft 131 kts 67°
2026-05-06 07:29 52.32619 13.38786 1262 ft 128 kts 67°
2026-05-06 07:29 52.32944 13.40144 1080 ft 129 kts 67°
2026-05-06 07:30 52.33271 13.41512 898 ft 129 kts 68°
2026-05-06 07:30 52.33596 13.42873 727 ft 128 kts 68°
2026-05-06 07:30 52.33917 13.44219 544 ft 127 kts 66°
2026-05-06 07:30 52.34234 13.45548 380 ft 128 kts 67°
2026-05-06 07:31 52.34558 13.46908 213 ft 125 kts 67°
2026-05-06 07:31 52.34847 13.48103 164 ft 91 kts 68°
2026-05-06 07:31 52.35018 13.48814 159 ft 49 kts 69°
2026-05-06 07:31 52.35144 13.49233 160 ft 32 kts 45°
2026-05-06 07:32 52.35295 13.49444 160 ft 25 kts 36°
2026-05-06 07:32 52.35358 13.49520 160 ft 6 kts 36°
2026-05-06 07:32 52.35393 13.49562 159 ft 6 kts 36°
2026-05-06 07:32 52.35433 13.49620 157 ft 9 kts 54°
2026-05-06 07:33 52.35464 13.49724 155 ft 11 kts 67°
2026-05-06 07:33 52.35493 13.49840 156 ft 11 kts 71°
2026-05-06 07:33 52.35515 13.49953 156 ft 11 kts 72°
2026-05-06 07:33 52.35544 13.50072 155 ft 12 kts 66°
2026-05-06 07:34 52.35583 13.50219 157 ft 15 kts 68°
2026-05-06 07:34 52.35625 13.50400 156 ft 19 kts 70°
2026-05-06 07:34 52.35672 13.50604 158 ft 18 kts 68°
2026-05-06 07:34 52.35716 13.50793 156 ft 15 kts 59°
2026-05-06 07:35 52.35793 13.50817 155 ft 10 kts 326°
2026-05-06 07:35 52.35862 13.50768 155 ft 13 kts 340°
2026-05-06 07:35 52.35965 13.50702 155 ft 18 kts 343°
2026-05-06 07:35 52.36097 13.50625 154 ft 21 kts 338°
2026-05-06 07:36 52.36223 13.50544 154 ft 17 kts 339°
2026-05-06 07:36 52.36310 13.50508 154 ft 10 kts
2026-05-06 07:36 52.36341 13.50581 155 ft 8 kts 80°
2026-05-06 07:36 52.36329 13.50627 156 ft 2 kts 85°
2026-05-06 07:37 52.36331 13.50630 156 ft 0 kts 68°
2026-05-06 07:37 52.36255 13.50690 156 ft 0 kts 64°